Location: Spruce Knob
(38.6995°N, 79.5330°W)
Time: 21:46:59
(UTC-04:00)

A-11 Canister half - Pass Details

Date: 03 February 2022
Orbit: 1513 x 1686 km, 47.2° (Epoch: 24 May)

Event Time Altitude Azimuth Distance (km) Brightness Sun altitude
Rises 20:58:26 0° 300° (WNW) 4,697 12.4 -38.5°
Reaches altitude 10° 21:01:32 10° 297° (WNW) 3,697 11.6 -39.0°
Enters shadow 21:09:54 60° 240° (WSW) 1,694 9.2 -40.6°
Maximum altitude 21:10:36 62° 220° (SW) 1,674 - -40.8°
Drops below altitude 10° 21:19:37 10° 142° (SE) 3,670 - -42.5°
Sets 21:22:42 0° 139° (SE) 4,660 - -43.1°
